This is the latest recevied weather packets stored in our database for station/object IW1CBG-23. If no packets are shown the sender has not sent any weather packets the latest 10 day(s).
| Time | Temp. | Humidity | Pressure | Rain* | Wind** | Luminosity | Snow |
|---|---|---|---|---|---|---|---|
| 1777850995 | 10.56° C | 85% | 1013.4 hPa | - | - | - | - |
| 1777849757 | 11.11° C | 86% | 1013.5 hPa | - | - | - | - |
| 1777848520 | 10.56° C | 93% | 1013.5 hPa | - | - | - | - |
| 1777847283 | 10.56° C | 99% | 1013.6 hPa | - | - | - | - |
| 1777846045 | 10° C | 99% | 1013.6 hPa | - | - | - | - |
| 1777844807 | 10.56° C | 99% | 1013.6 hPa | - | - | - | - |
| 1777843569 | 10° C | 99% | 1013.5 hPa | - | - | - | - |
| 1777842332 | 10° C | 99% | 1013.4 hPa | - | - | - | - |
| 1777841095 | 10.56° C | 99% | 1013.5 hPa | - | - | - | - |
| 1777839857 | 10.56° C | 99% | 1013.3 hPa | - | - | - | - |
| 1777838619 | 10.56° C | 99% | 1013.2 hPa | - | - | - | - |
| 1777837382 | 10.56° C | 99% | 1013.1 hPa | - | - | - | - |
| 1777834938 | 10.56° C | 99% | 1012.9 hPa | - | - | - | - |
| 1777833700 | 11.11° C | 99% | 1012.8 hPa | - | - | - | - |
| 1777832463 | 11.11° C | 99% | 1012.7 hPa | - | - | - | - |
| 1777831226 | 11.11° C | 99% | 1012.7 hPa | - | - | - | - |
| 1777829989 | 11.67° C | 99% | 1012.9 hPa | - | - | - | - |
| 1777828752 | 11.11° C | 99% | 1012.9 hPa | - | - | - | - |
| 1777827515 | 11.67° C | 97% | 1012.8 hPa | - | - | - | - |
| 1777826278 | 11.67° C | 90% | 1012.7 hPa | - | - | - | - |
| 1777825042 | 12.22° C | 84% | 1012.9 hPa | - | - | - | - |
| 1777823805 | 13.33° C | 79% | 1013 hPa | - | - | - | - |
| 1777822569 | 13.33° C | 76% | 1013.1 hPa | - | - | - | - |
| 1777821331 | 13.33° C | 79% | 1012.9 hPa | - | - | - | - |
| 1777820094 | 12.78° C | 78% | 1013.2 hPa | - | - | - | - |
* Rain since midnight (hover to see other rain measurements)
** Current wind speed in m/s (hover to see current wind gust speed)